[[{"header":{"parameterUnit":"m.s-1","parameterCategory":1,"la1":30.2991,"la2":30.254,"lo1":-89.0895,"lo2":-89.0444,"dy":0.0017,"dx":0.0017,"nx":28,"ny":28,"refTime":"2025-05-24T21:00:00:Z","depth":0,"parameterNumber":2,"parameterNumberName":"U-component_of_WINDS"},"data":[0,0,0,0,0,0,0,0,0,0,0,0,0,0,0,0,0,0,0,0,0,0,0,0,0,0,0,0,0,0,0,0,0,0,0,0,0,0,0,0,0,0,0,0,0,0,0,0,0,0,0,0,0,0,0,0,0,0,0.1382,0.1383,0,0.149,0.1491,0.1492,0.1561,0.1561,0.1561,0.1562,0.1673,0.1676,0.1678,0,0,0,0,0,0,0,0,0,0,0,0,0,0.1236,0.1238,0.1382,0.1383,0.1385,0.149,0.1491,0.1493,0.1561,0.1561,0.1562,0.1562,0.1672,0.1675,0.1679,0,0,0,0,0,0,0,0,0,0,0,0,0,0.1317,0.1239,0.1382,0.1431,0.1437,0.1489,0.1491,0.1493,0.156,0.1561,0.1562,0.1562,0.1671,0.1675,0.1679,0.1691,0,0,0.1691,0.1693,0,0,0,0,0,0,0,0,0.1312,0.1322,0.1423,0.1428,0.1434,0.1512,0.1481,0.156,0.156,0.1513,0.1562,0.1563,0.1619,0.1627,0.1646,0.1696,0.1701,0.1691,0.1694,0.1695,0.1696,0,0,0,0,0,0,0,0.1306,0.1318,0.1425,0.1424,0.1431,0.1448,0.146,0.1496,0.1562,0.1518,0.1523,0.1535,0.1623,0.1643,0.165,0.1703,0.1691,0.1695,0.1697,0.1698,0.1769,0.1768,0,0,0,0,0,0,0.1293,0.1313,0.1421,0.1428,0.1373,0.145,0.1464,0.1487,0.1562,0.1574,0.1534,0.1537,0.1636,0.1645,0.1654,0.1673,0.1695,0.1699,0.1701,0.1769,0.1769,0.1768,0,0,0,0,0,0,0.1289,0.1302,0.1417,0.1372,0.1388,0.1452,0.1477,0.1489,0.1509,0.1574,0.1586,0.1542,0.1636,0.1648,0.1681,0.1678,0.1701,0.1704,0.177,0.1769,0.1768,0.1712,0,0,0,0,0,0,0.1285,0.13,0.1305,0.1371,0.139,0.1442,0.1477,0.149,0.1515,0.152,0.1585,0.1596,0.1638,0.1675,0.1685,0.1684,0.1707,0.177,0.177,0.1769,0.1715,0.171,0.1706,0,0,0,0,0,0.1279,0.1285,0.1305,0.1318,0.1398,0.1442,0.1453,0.15,0.1514,0.152,0.1562,0.1594,0.1677,0.1678,0.169,0.169,0.1771,0.177,0.1769,0.1717,0.1711,0.1706,0,0,0,0,0,0,0.1217,0.1295,0.1318,0.1345,0.1386,0.1453,0.1462,0.1492,0.153,0.1534,0.1592,0.1606,0.1633,0.1665,0.1665,0.1706,0.1728,0.1729,0.1684,0.1679,0.1674,0.1666,0.171,0,0,0,0,0,0.1206,0.1236,0.1302,0.132,0.134,0.1397,0.1418,0.1451,0.1496,0.1514,0.1559,0.1602,0.1638,0.166,0.1696,0.172,0.1735,0.1725,0.1721,0.1717,0.1717,0.1732,0.1729,0.1765,0.1765,0.1765,0,0,0.1185,0.1231,0.1246,0.1309,0.1345,0.1374,0.1411,0.1441,0.1463,0.1519,0.1553,0.1587,0.1639,0.1667,0.1682,0.1694,0.171,0.1715,0.1711,0.1714,0.1731,0.1727,0.1724,0.1764,0.1764,0.1764,0,0,0.1161,0.1198,0.1218,0.1253,0.1307,0.1345,0.1349,0.1412,0.1437,0.1472,0.1514,0.1542,0.1602,0.1638,0.1663,0.1652,0.1683,0.1663,0.1639,0.1653,0.165,0.1648,0.1644,0.1642,0.1663,0.1663,0.1663,0,0.1127,0.1173,0.1224,0.1251,0.1277,0.1329,0.1349,0.1381,0.1443,0.1461,0.1474,0.1551,0.1589,0.1626,0.1624,0.1643,0.165,0.1656,0.1646,0.1644,0.1643,0.164,0.1639,0.166,0.166,0.1661,0.1661,0,0.1129,0.1161,0.117,0.1229,0.1257,0.128,0.1334,0.1356,0.1386,0.1423,0.1458,0.1506,0.1554,0.1565,0.1595,0.1607,0.1613,0.1635,0.1658,0.1636,0.1634,0.1634,0.1656,0.1657,0.1658,0.1659,0,0,0.1069,0.1156,0.1159,0.1187,0.125,0.1275,0.1301,0.1347,0.1365,0.1406,0.143,0.1479,0.1501,0.153,0.1564,0.1577,0.1565,0.1598,0.16,0.159,0.1581,0.1564,0.1562,0.1586,0.1586,0.1586,0.1577,0,0.1054,0.1103,0.115,0.1182,0.1212,0.1261,0.1284,0.1325,0.136,0.1391,0.143,0.1464,0.149,0.1507,0.1522,0.1563,0.1564,0.1565,0.1608,0.1609,0.1594,0.1561,0.1543,0.1532,0.1577,0.1577,0.1576,0,0.1044,0.1083,0.1119,0.118,0.1194,0.1213,0.1259,0.1288,0.1336,0.1361,0.1393,0.143,0.146,0.1479,0.1521,0.152,0.1541,0.1564,0.1565,0.1571,0.1592,0.1566,0.153,0.1528,0.1576,0.1576,0.1576,0,0.0996,0.1058,0.1088,0.111,0.1182,0.1194,0.1225,0.1274,0.1298,0.1339,0.1355,0.1398,0.1422,0.1455,0.1502,0.1512,0.1539,0.1563,0.1561,0.156,0.1565,0.1564,0.1531,0.1577,0.1577,0.1577,0.1577,0,0.0975,0.0995,0.1068,0.1085,0.1109,0.1162,0.1184,0.1219,0.1262,0.1288,0.1333,0.1356,0.1418,0.1448,0.1485,0.1515,0.1525,0.1546,0.1556,0.1542,0.1539,0.1557,0.1559,0.1577,0.1577,0.1577,0.1577,0,0.0926,0.0975,0.1011,0.1076,0.1093,0.1107,0.1163,0.1183,0.1221,0.1253,0.1263,0.1322,0.1361,0.1411,0.1465,0.1491,0.1515,0.153,0.1499,0.1505,0.15,0.15,0.1477,0.1477,0.1523,0.1522,0.1522,0,0.0909,0.0926,0.0993,0.1013,0.1043,0.1075,0.1101,0.1154,0.1179,0.1235,0.1247,0.1289,0.1326,0.1385,0.1433,0.1474,0.1491,0.148,0.1497,0.1483,0.1491,0.1489,0.1491,0.1476,0.1475,0.1474,0.1474,0,0.0874,0.0898,0.0934,0.0977,0.1007,0.1044,0.1083,0.1097,0.1159,0.1184,0.1224,0.1252,0.1307,0.1348,0.1397,0.1428,0.1461,0.1468,0.147,0.1456,0.1437,0.1447,0.1487,0.1468,0.1469,0.1469,0.1469,0.147,0.0841,0.0858,0.0908,0.0946,0.0981,0.1017,0.1039,0.1079,0.1113,0.1163,0.1192,0.1231,0.1279,0.1347,0.1377,0.1408,0.1421,0.1423,0.1424,0.1424,0.1419,0.1432,0.1417,0.1417,0.1417,0.1418,0.1418,0,0.0809,0.0844,0.0878,0.0932,0.0961,0.099,0.1035,0.1058,0.1091,0.1134,0.1168,0.1214,0.1254,0.1305,0.1349,0.1364,0.138,0.1374,0.1373,0.138,0.1405,0.14,0.136,0.136,0.136,0.136,0.136,0.136,0.0795,0.0826,0.0856,0.0904,0.0939,0.0977,0.1001,0.1034,0.1068,0.1117,0.115,0.1184,0.123,0.1277,0.1315,0.1329,0.1343,0.1332,0.135,0.1373,0.1378,0.1383,0.1378,0.1334,0.1334,0.1323,0.1322,0.1322]},{"header":{"parameterUnit":"m.s-1","parameterCategory":1,"la1":30.2991,"la2":30.254,"lo1":-89.0895,"lo2":-89.0444,"dy":0.0017,"dx":0.0017,"nx":28,"ny":28,"refTime":"2025-05-24T21:00:00:Z","depth":0,"parameterNumber":3,"parameterNumberName":"V-component_of_WINDS"},"data":[0,0,0,0,0,0,0,0,0,0,0,0,0,0,0,0,0,0,0,0,0,0,0,0,0,0,0,0,0,0,0,0,0,0,0,0,0,0,0,0,0,0,0,0,0,0,0,0,0,0,0,0,0,0,0,0,0,0,3.4484,3.4484,0,3.4472,3.4472,3.4472,3.4498,3.4499,3.45,3.4501,3.4483,3.4481,3.448,0,0,0,0,0,0,0,0,0,0,0,0,0,3.4526,3.4525,3.4484,3.4484,3.4484,3.4472,3.4472,3.4472,3.4498,3.4499,3.45,3.4501,3.4483,3.4481,3.448,0,0,0,0,0,0,0,0,0,0,0,0,0,3.451,3.4525,3.4484,3.4496,3.4497,3.4472,3.4472,3.4472,3.4498,3.4499,3.45,3.4501,3.4483,3.4482,3.448,3.4442,0,0,3.4474,3.4473,0,0,0,0,0,0,0,0,3.4511,3.4509,3.4494,3.4495,3.4496,3.4488,3.448,3.4461,3.4497,3.4497,3.4501,3.4502,3.4483,3.4481,3.4476,3.4441,3.444,3.4474,3.4472,3.4472,3.4471,0,0,0,0,0,0,0,3.4512,3.4509,3.4479,3.4494,3.4495,3.45,3.4499,3.4477,3.4483,3.4497,3.4499,3.4498,3.4484,3.4478,3.4476,3.444,3.4474,3.4472,3.4471,3.447,3.4373,3.4372,0,0,0,0,0,0,3.4512,3.451,3.448,3.4479,3.4507,3.4498,3.4497,3.4489,3.4483,3.4484,3.4497,3.4499,3.448,3.4478,3.4475,3.443,3.4472,3.447,3.4469,3.4375,3.4373,3.4372,0,0,0,0,0,0,3.4513,3.451,3.448,3.4495,3.4492,3.4496,3.4487,3.4488,3.4482,3.4483,3.4483,3.449,3.4481,3.4478,3.445,3.443,3.4469,3.4467,3.4377,3.4374,3.4372,3.434,0,0,0,0,0,0,3.4514,3.451,3.4496,3.4495,3.4491,3.4457,3.4486,3.4487,3.448,3.4483,3.4476,3.4476,3.4482,3.4453,3.4448,3.4428,3.4466,3.4378,3.4376,3.4373,3.4343,3.4337,3.4333,0,0,0,0,0,3.4516,3.4486,3.4495,3.4492,3.4474,3.4456,3.4453,3.4462,3.4478,3.4464,3.4464,3.4477,3.4433,3.445,3.4445,3.4424,3.438,3.4376,3.4373,3.4346,3.4339,3.4333,0,0,0,0,0,0,3.4483,3.4486,3.4496,3.4466,3.4461,3.446,3.4443,3.4454,3.4443,3.4446,3.4455,3.4453,3.4424,3.4421,3.444,3.4387,3.4409,3.4405,3.439,3.4383,3.4378,3.4378,3.4464,0,0,0,0,0,3.4473,3.4459,3.4462,3.4435,3.4432,3.4438,3.443,3.4437,3.4431,3.4428,3.4427,3.4419,3.4404,3.4393,3.4379,3.4343,3.4342,3.4326,3.4321,3.4317,3.4312,3.4293,3.4286,3.4361,3.4361,3.4361,0,0,3.4451,3.4451,3.4441,3.4428,3.4425,3.4409,3.4435,3.4417,3.4405,3.4425,3.44,3.4398,3.439,3.4358,3.4344,3.4355,3.4292,3.4313,3.4309,3.4307,3.4289,3.4282,3.4276,3.4359,3.4359,3.436,0,0,3.4402,3.4401,3.4378,3.4375,3.4371,3.4375,3.437,3.4368,3.4368,3.4343,3.4358,3.4343,3.4317,3.4311,3.4304,3.4255,3.4265,3.425,3.4221,3.4202,3.4196,3.4191,3.4173,3.4166,3.4246,3.4246,3.4246,0,3.4374,3.4352,3.4365,3.4346,3.434,3.436,3.4336,3.4332,3.4322,3.4317,3.433,3.4298,3.4294,3.4261,3.4249,3.4243,3.4236,3.425,3.4196,3.4191,3.4187,3.4169,3.4163,3.4244,3.4244,3.4244,3.4244,0,3.4318,3.4303,3.4285,3.4278,3.4269,3.4248,3.4256,3.4246,3.4255,3.4257,3.4231,3.4228,3.4213,3.4206,3.4213,3.4174,3.4181,3.4195,3.4217,3.4177,3.4161,3.4155,3.4241,3.4242,3.4242,3.4243,0,0,3.4247,3.4248,3.4241,3.4239,3.4236,3.4223,3.4203,3.4191,3.4182,3.4175,3.4157,3.4135,3.4149,3.4141,3.4148,3.4131,3.4092,3.4147,3.4147,3.4137,3.4049,3.4038,3.403,3.41,3.4099,3.4098,3.4049,0,3.4199,3.4166,3.4177,3.4143,3.4128,3.4147,3.413,3.4125,3.4127,3.4114,3.4116,3.4101,3.4119,3.4115,3.41,3.41,3.4074,3.4104,3.4082,3.4081,3.4083,3.4022,3.401,3.3964,3.4043,3.4042,3.4041,0,3.4137,3.413,3.4095,3.4096,3.409,3.4074,3.4064,3.4052,3.4047,3.405,3.4043,3.4053,3.4032,3.4055,3.4026,3.4046,3.4038,3.4037,3.4035,3.4032,3.4058,3.4017,3.395,3.3942,3.4032,3.4032,3.4033,0,3.4088,3.407,3.4047,3.4044,3.4044,3.4032,3.4031,3.4028,3.402,3.4011,3.4006,3.3994,3.3987,3.3977,3.3984,3.4001,3.3953,3.3977,3.3954,3.3953,3.3942,3.3942,3.3872,3.3938,3.3938,3.3938,3.3938,0,3.4033,3.401,3.4025,3.401,3.3986,3.3999,3.3973,3.3974,3.3972,3.3957,3.3972,3.3958,3.3968,3.3954,3.3958,3.3933,3.393,3.393,3.3932,3.3929,3.3929,3.3923,3.3926,3.3936,3.3937,3.3937,3.3937,0,3.3973,3.3982,3.3958,3.3961,3.3961,3.3943,3.3945,3.3931,3.3935,3.3916,3.3912,3.3918,3.3902,3.3908,3.3891,3.3894,3.3862,3.3868,3.3864,3.3865,3.3841,3.3843,3.3764,3.3754,3.3827,3.3826,3.3826,0,3.3937,3.392,3.3922,3.3914,3.3913,3.39,3.3893,3.3905,3.3897,3.3891,3.3877,3.3864,3.3853,3.3827,3.3829,3.3816,3.3821,3.3794,3.3819,3.3816,3.382,3.382,3.3819,3.3788,3.3788,3.3787,3.3786,0,3.387,3.3876,3.3867,3.3858,3.385,3.3844,3.3839,3.3831,3.3843,3.3833,3.3818,3.381,3.3794,3.3779,3.3768,3.3766,3.3777,3.3779,3.3773,3.3769,3.3767,3.3767,3.385,3.378,3.3781,3.3781,3.3782,3.3782,3.3821,3.3807,3.3807,3.3796,3.3794,3.3789,3.3776,3.378,3.3768,3.3757,3.3765,3.3748,3.3743,3.373,3.3726,3.3712,3.3722,3.3713,3.3711,3.3708,3.3705,3.3771,3.371,3.371,3.371,3.371,3.371,0,3.3755,3.3757,3.3746,3.374,3.3731,3.3745,3.374,3.3731,3.3717,3.3713,3.3703,3.3686,3.3673,3.3674,3.3662,3.365,3.3655,3.3646,3.3647,3.3646,3.3697,3.3703,3.3642,3.3642,3.3642,3.3642,3.3642,3.3642,3.372,3.3698,3.3704,3.3681,3.3682,3.3667,3.3663,3.3658,3.3655,3.3637,3.3626,3.3628,3.3626,3.3614,3.3602,3.3603,3.3597,3.3586,3.3588,3.3635,3.3642,3.3648,3.3655,3.3585,3.3585,3.3539,3.3538,3.3538]}]]